Location: Unspecified
(49.2170°N, 0.0000°E)
Time: 12:12:23
(UTC+00:00)

Vanguard 1 - Pass Details

Date: 27 June 2021
Orbit: 651 x 3832 km, 34.2° (Epoch: 23 July)

Event Time Altitude Azimuth Distance (km) Brightness Sun altitude
Rises 22:06:48 0° 261° (W) 7,848 14.9 -13.0°
Reaches altitude 10° 22:12:18 10° 257° (WSW) 6,921 14.5 -13.4°
Maximum altitude 22:33:55 50° 192° (SSW) 4,024 12.8 -14.8°
Drops below altitude 10° 22:49:28 10° 124° (SE) 5,135 13.3 -15.7°
Sets 22:52:50 0° 119° (ESE) 5,782 13.6 -15.8°
